Preview of NWS' New Version of Forecast
This preview is not operational and should not be used for support decisions.

Regional Weather Roundup (RWR)

Issued by National Weather Service (NWS)

                            
000
ASUS44 KJAN 181010
RWRMS 

MISSISSIPPI HOURLY WEATHER ROUNDUP
NATIONAL WEATHER SERVICE JACKSON MS
500 AM CDT SAT MAY 18 2019

NOTE: "FAIR: INDICATES FEW OR NO CLOUDS BELOW 12,000 FEET WITH NO
SIGNIFICANT WEATHER AND/OR OBSTRUCTIONS TO VISIBILITY.

MSZ001>002-007>008-010>013-018>021-025>028-034>036-181100-
NORTHWEST MISSISSIPPI
  
CITY           SKY/WX    TMP DP  RH WIND       PRES   REMARKS
BATESVILLE       N/A    N/A N/A N/A CALM      29.92S                  
CLARKSDALE     CLEAR     68  68 100 S5        29.91R                  
CLEVELAND      FAIR      67  66  97 S6        29.91R                  
GREENWOOD      FAIR      67  62  84 S10       29.92S                  
GREENVILLE     FAIR      68  63  84 S7        29.90R                  
OLIVE BRANCH   PTCLDY    66  66 100 S5        29.91S FOG              
OXFORD         FAIR      66  61  82 S5        29.94F                  
TUNICA           N/A     64  61  88 S3        29.91S                  
WINONA         FAIR      63  62  97 CALM      29.94S                  
$$

MSZ003>006-009-014>017-022>024-029>033-037>039-181100-
NORTHEAST MISSISSIPPI
  
CITY           SKY/WX    TMP DP  RH WIND       PRES   REMARKS
ABERDEEN       FOG       63  63 100 CALM      29.97R VSB 1/2          
COLUMBUS AFB   FAIR      64  63  96 CALM      29.95S                  
CORINTH        FAIR      66  66 100 CALM      29.94F FOG              
GOLDN TRIANGLE FAIR      68  64  87 S7        29.97R                  
STARKVILLE     FAIR      63  61  94 CALM      29.97S                  
TUPELO         FAIR      68  63  84 CALM      29.94S                  
$$

MSZ040-058-181100-
CENTRAL MISSISSIPPI
  
CITY           SKY/WX    TMP DP  RH WIND       PRES   REMARKS
JACKSON INTL   FAIR      66  63  90 SE7       29.93S                  
JACKSON HAWKNS FAIR      66  66 100 SE6       29.94R                  
MADISON        FAIR      64  64 100 CALM      29.94R                  
MERIDIAN KEY   FAIR      64  61  90 CALM      29.97R                  
MERIDIAN NAS   FAIR      65  64  97 CALM      29.97S                  
RAYMOND        FAIR      64  64 100 E6        29.93R                  
VICKSBURG VKS  SUNNY     66  66 100 CALM      29.92S                  
$$

MSZ059>079-181100-
SOUTH MISSISSIPPI
  
CITY           SKY/WX    TMP DP  RH WIND       PRES   REMARKS
BROOKHAVEN     PTSUNNY   66  66 100 CALM      29.95R                  
HATTIESBURG    FOG       64  63  96 CALM      29.95S VSB 1/4          
LAUREL         MOSUNNY   66  65  98 E5        29.95S                  
MCCOMB         MOCLDY    67  66  97 SE5       29.94R FOG              
NATCHEZ        FAIR      67  66  97 S6        29.92R                  
PINE BELT      MOCLDY    63  63 100 CALM      29.96S FOG              
$$

MSZ080>082-181100-
COASTAL MISSISSIPPI
  
CITY           SKY/WX    TMP DP  RH WIND       PRES   REMARKS
BILOXI         FAIR      78  71  81 S8        29.94                   
PASCAGOULA     FAIR      66  64  93 CALM      29.95F FOG              
GULFPORT       FAIR      78  71  79 SE12      29.93S                  
$$

LAZ007>009-015>016-023>026-181100-
NORTHEAST LOUISIANA
  
CITY           SKY/WX    TMP DP  RH WIND       PRES   REMARKS
BASTROP        FAIR      67  67  97 CALM      29.90S                  
TALLULAH/VBURG FAIR      68  66  93 SE6       29.92R                  
VIDALIA        FAIR      68  67  95 SE8       29.90S                  
$$